CDT,Max TemperatureF,Mean TemperatureF,Min TemperatureF,Max Dew PointF,MeanDew PointF,Min DewpointF,Max Humidity, Mean Humidity, Min Humidity, Max Sea Level PressureIn, Mean Sea Level PressureIn, Min Sea Level PressureIn, Max VisibilityMiles, Mean VisibilityMiles, Min VisibilityMiles, Max Wind SpeedMPH, Mean Wind SpeedMPH, Max Gust SpeedMPH,PrecipitationIn, CloudCover, Events, WindDirDegrees
2012-9-1,80,60,39,54,45,37,93,58,28,30.23,30.15,30.03,10,10,10,13,3,18,0.00,0,,143
2012-9-2,78,69,60,63,55,48,94,62,42,30.04,29.91,29.81,10,10,10,16,7,22,0.00,0,Rain,160
2012-9-3,87,68,48,64,51,39,100,61,19,29.92,29.89,29.84,10,7,0,15,2,23,0.00,2,Fog-Rain,225
2012-9-4,86,67,48,61,52,46,94,66,32,29.91,29.82,29.74,10,10,10,14,2,21,0.00,1,Thunderstorm,196
2012-9-5,73,62,50,55,48,43,94,63,33,29.86,29.82,29.76,10,10,10,13,2,22,0.03,3,Rain-Thunderstorm,265
2012-9-6,64,52,41,55,49,39,100,81,56,29.95,29.91,29.85,10,10,2,13,2,17,0.05,2,Rain,255
2012-9-7,60,54,46,50,47,43,94,81,52,30.03,29.99,29.95,10,10,5,9,2,16,0.00,5,Rain,308
2012-9-8,60,48,37,52,45,37,100,82,59,30.07,29.92,29.80,10,8,0,14,3,25,0.00,4,Fog-Rain,311
2012-9-9,69,53,37,50,45,36,93,75,40,30.20,30.13,30.03,10,9,0,8,3,,0.00,1,Fog,264
2012-9-10,80,61,42,50,47,41,93,60,32,30.04,29.85,29.71,10,10,10,21,7,30,0.00,0,,170
2012-9-11,80,68,55,57,51,34,82,57,36,29.89,29.72,29.65,10,10,10,15,6,23,0.00,0,,189
2012-9-12,68,60,51,41,31,21,62,37,19,30.17,30.03,29.88,10,10,10,23,6,32,0.00,0,,243
2012-9-13,66,52,39,37,31,25,81,45,22,30.34,30.26,30.16,10,10,10,10,5,23,0.00,1,Rain,277
2012-9-14,66,47,28,41,33,27,93,66,26,30.38,30.33,30.27,10,10,10,6,0,,0.00,0,,333
2012-9-15,77,54,30,48,40,28,93,64,27,30.26,30.08,29.89,10,10,7,13,3,18,0.00,0,,158
2012-9-16,69,54,39,48,41,37,93,62,31,30.03,29.94,29.85,10,10,10,10,3,18,0.00,2,Rain,334
2012-9-17,57,44,30,37,32,27,93,61,33,30.04,30.01,29.98,10,10,10,12,3,21,0.00,2,Rain,336
2012-9-18,60,40,21,36,27,19,93,61,27,30.02,29.95,29.77,10,10,10,12,2,16,0.00,2,Rain,196
2012-9-19,60,53,46,48,41,34,93,70,52,29.76,29.63,29.53,10,10,10,14,9,26,0.12,6,Rain,247
2012-9-20,57,50,42,45,40,34,93,73,44,29.85,29.80,29.73,10,10,7,13,6,22,0.00,5,Rain,300
2012-9-21,57,44,30,43,35,28,100,80,38,29.87,29.81,29.74,10,9,0,15,3,23,0.15,4,Fog-Rain,296
2012-9-22,51,42,33,39,33,27,93,73,40,30.22,30.14,29.89,10,10,3,12,7,21,0.01,5,Rain,332
2012-9-23,55,40,26,34,27,23,100,68,29,30.27,30.20,30.04,10,10,1,10,1,16,0.00,0,,260
2012-9-24,69,50,30,37,31,27,87,48,28,30.02,29.80,29.69,10,10,10,17,9,28,0.00,0,,270
2012-9-25,57,40,24,37,30,21,93,72,36,30.02,29.94,29.88,10,10,10,9,1,,0.00,2,,334
2012-9-26,60,43,26,37,30,25,93,69,29,30.21,30.13,30.02,10,10,10,5,1,,0.00,2,,334
2012-9-27,66,45,24,39,31,21,93,66,28,30.26,30.21,30.16,10,10,10,10,2,,0.00,0,,215
2012-9-28,73,53,33,43,37,30,93,62,25,30.18,30.14,30.08,10,10,10,8,1,,0.00,0,,201
2012-9-29,78,55,32,45,37,28,93,60,20,30.15,30.10,30.04,10,10,10,6,0,,0.00,0,,147
2012-9-30,78,61,44,43,39,36,76,48,24,30.05,29.94,29.83,10,10,10,12,5,17,0.00,0,,174